Location: Unspecified
(0.0000°N, 0.0000°E)
Time: 10:13:17
(UTC+00:00)

Courier 1B Rocket - Pass Details

Date: 25 May 2026
Orbit: 920 x 1201 km, 28.2° (Epoch: 9 June)

Event Time Altitude Azimuth Distance (km) Brightness Sun altitude
Rises 10:45:35 0° 311° (NW) 3,545 8.0 62.7°
Reaches altitude 10° 10:48:14 10° 317° (NW) 2,617 7.5 63.1°
Maximum altitude 10:54:16 48° 30° (NNE) 1,225 7.5 64.0°
Drops below altitude 10° 11:00:37 10° 103° (ESE) 2,756 7.6 64.9°
Sets 11:03:28 0° 109° (ESE) 3,751 8.1 65.3°
